Location: Bednik
(45.3500°N, 16.3833°E)
Time: 16:49:23
(UTC+00:00)

SPOT 5 - Pass Details

Date: 08 August 2020
Orbit: 624 x 814 km, 98.3° (Epoch: 25 September)

Event Time Altitude Azimuth Distance (km) Brightness Sun altitude
Exits shadow 20:35:52 53° 164° (SSE) 769 2.6 -20.7°
Maximum altitude 20:36:52 89° 85° (E) 631 2.5 -20.8°
Drops below altitude 10° 20:41:14 10° 347° (NNW) 2,017 6.1 -21.2°
Sets 20:43:27 0° 347° (NNW) 2,941 7.2 -21.5°
